Regional Weather Roundup
Issued by NWS Newport/Morehead, NC

Current Version | Previous Version | Text Only | Print | Product List | Glossary On
Versions: 1 2 3 4 5 6 7 8 9 10 11 12 13 14 15 16 17 18 19 20 21 22 23 24 25 26 27 28 29 30 31 32 33 34 35 36 37 38 39 40 41 42 43 44 45 46 47 48 49 50
000
ASUS42 KMHX 032125
RWRMHX
WEATHER ROUNDUP FOR EASTERN NORTH CAROLINA
NATIONAL WEATHER SERVICE NEWPORT/MOREHEAD CITY NC
500 PM EDT WED JUN 03 2015

NOTE: "FAIR" INDICATES FEW OR NO CLOUDS BELOW 12,000 FEET
WITH NO SIGNIFICANT WEATHER AND/OR OBSTRUCTIONS TO VISIBILITY

NCZ015>017-031-032-045>047-102-103-032200-
NORTH COAST

CITY           SKY/WX    TMP DP  RH WIND       PRES   REMARKS
EDENTON        CLOUDY    70  67  89 N6        30.05S
ELIZABETH CITY CLOUDY    70  67  90 N12       30.05S
KITTY HAWK       N/A     73  69  88 N6        30.02F
MANTEO         PTSUNNY   75  69  80 E10       30.02F

$$

NCZ045>047-081-094-103-104-032200-
CENTRAL COAST

CITY           SKY/WX    TMP DP  RH WIND       PRES   REMARKS
FRISCO         PTSUNNY   78  69  73 E7        30.01F
SWANQUARTER      N/A     75 N/A N/A N5        29.97S

$$

NCZ095-097-098-100-101-032200-
SOUTHERN COAST

CITY           SKY/WX    TMP DP  RH WIND       PRES   REMARKS
BEAUFORT       CLOUDY    77  69  76 E9        29.99F
CEDAR ISLAND     N/A     79 N/A N/A NE9       30.03F
JACKSONVILLE   CLOUDY    77  68  73 NE3       29.98F
PINEY ISLAND   CLOUDY   N/A N/A N/A E9        30.00F
WILMINGTON     PTSUNNY   76  68  76 E8        29.99S


$$

NCZ011>013-027>030-043-044-078>080-089-090>093-098-032200-
COASTAL PLAIN

CITY           SKY/WX    TMP DP  RH WIND       PRES   REMARKS
AHOSKIE        CLOUDY    67  64  92 N7        30.06F
CLINTON        DRIZZLE   70  68  93 CALM      30.01S
ELIZABETHTOWN  PTSUNNY   77  67  72 E6        29.99S
GOLDSBORO      CLOUDY    75  68  79 NE5       29.99S
GREENVILLE     CLOUDY    77  68  73 NE9       30.03F
HAVELOCK       RAIN      78  69  73 SE10      30.00F
KENANSVILLE    CLOUDY    73  67  81 CALM      30.01F
KINSTON        CLOUDY    73  68  83 CALM      30.01F
NEW BERN       CLOUDY    79  67  66 E8        30.00F
RICHLANDS      CLOUDY    75  66  73 W3        30.00S
ROCKY MOUNT    LGT RAIN  71  67  87 NE10      30.04S
WASHINGTON     HVY RAIN  71  67  90 NE5       30.03S
WHITEVILLE     CLOUDY    76  67  75 E3        29.99S

$$

AMZ130-135-150-152-154-156-158-170-250-252-270-ANZ085-086-088-633-658-670-032200-
MARINE OBSERVATIONS

STATION/POSITION TIME  TEMP    WIND        PRES    WAVE   SWELL
                       AIR SEA DIR/SP/G            HT/PER HT/PER
                 (UTC) (F)     (DEG/KT/KT) (MB)    (FT/S) (FT/S)
CHESAPEAKE LIGHT 2100   68      40/ 21/ 23 1017.9
64 E VA BEACH    2050   73 74   70/ 12/ 14 1016.8    5/ 7   5/ 7
DUCK             2100   65 62  350/ 11/ 11 1015.9
2 E DUCK         2011      69                N/A     4/ 6
OREGON INLET     2100   73 70   20/ 10/ 12 1016.4
13E OREGON INLT  2100      77                N/A     4/ 7
HATTERAS CG      2100   77 78   70/  6/ 10 1015.8
DIAMOND BUOY     2050   78 82   90/  6/  8 1016.1    3/ 8   2/ 8
CAPE LOOKOUT     2100   75      80/  9/ 11 1015.5
BEAUFORT LAB     2100   76 78   80/  7/  9 1014.9
30 SE NEW RVR IN NOT AVBL
27 SE WRIGHTSVLE 2100      77  120/ 14/ 16   N/A
5 SE WRIGHTSVLE  NOT AVBL
225 S CAPE HAT   2050   78 77  150/ 10/ 12 1016.1    3/ 9   3/ 9
41 SE CHARLESTON 2050   77 80  120/  8/ 10 1014.2    2/ 8   2/ 8

$$


USA.gov is the U.S. government's official web portal to all federal, state and local government web resources and services.